• In United Kingdom
  • List of Countries
  • For 7 days
  • Water Temperature
  • Satellite Maps
  • Weather Map
  • Weather Widgets
  • user-avatar
    Login

    Hourly Weather Armawir

    Today, 20 April, Friday

    Time Temperature Precipitation Wind Pressure Humidity
    00:00 +14°C° 0.2 mm 2 mps 682 mmHg 62%
    01:00 +14°C° 0 mm 2 mps 682 mmHg 62%
    02:00 +13°C° 0 mm 2 mps 682 mmHg 62%
    03:00 +13°C° 0 mm 1 mps 681 mmHg 62%
    04:00 +13°C° 0 mm 1 mps 681 mmHg 62%
    05:00 +13°C° 0 mm 1 mps 681 mmHg 63%
    06:00 +13°C° 0 mm 1 mps 681 mmHg 63%
    07:00 +14°C° 0 mm 2 mps 680 mmHg 59%
    08:00 +16°C° 0 mm 2 mps 680 mmHg 55%
    09:00 +17°C° 0 mm 2 mps 680 mmHg 50%
    10:00 +18°C° 0.1 mm 3 mps 679 mmHg 48%
    11:00 +19°C° 0.1 mm 4 mps 679 mmHg 46%
    12:00 +20°C° 0.1 mm 4 mps 679 mmHg 43%
    13:00 +19°C° 0.8 mm 4 mps 678 mmHg 47%
    14:00 +19°C° 0.8 mm 4 mps 678 mmHg 51%
    15:00 +18°C° 0.8 mm 4 mps 678 mmHg 54%
    16:00 +18°C° 0.9 mm 3 mps 678 mmHg 55%
    17:00 +17°C° 0.9 mm 3 mps 678 mmHg 56%
    18:00 +17°C° 0.9 mm 2 mps 678 mmHg 56%
    19:00 +16°C° 0.9 mm 2 mps 678 mmHg 61%
    20:00 +15°C° 0.9 mm 2 mps 678 mmHg 65%
    21:00 +14°C° 0.9 mm 1 mps 678 mmHg 70%
    22:00 +14°C° 1 mm 2 mps 678 mmHg 70%
    23:00 +12°C° 1 mm 3 mps 677 mmHg 71%

    Tomorrow, 21 April, Saturday

    Time Temperature Precipitation Wind Pressure Humidity
    00:00 +11°C° 1 mm 4 mps 677 mmHg 72%
    01:00 +11°C° 0.8 mm 4 mps 677 mmHg 72%
    02:00 +10°C° 0.8 mm 4 mps 677 mmHg 73%
    03:00 +10°C° 0.8 mm 4 mps 677 mmHg 73%
    04:00 +8°C° 1 mm 4 mps 678 mmHg 74%
    05:00 +8°C° 1 mm 4 mps 678 mmHg 76%
    06:00 +9°C° 1 mm 3 mps 678 mmHg 78%
    07:00 +9°C° 0.5 mm 3 mps 679 mmHg 75%
    08:00 +10°C° 0.5 mm 3 mps 679 mmHg 72%
    09:00 +10°C° 0.5 mm 3 mps 679 mmHg 69%
    10:00 +12°C° 0.3 mm 2 mps 680 mmHg 67%
    11:00 +13°C° 0.3 mm 2 mps 680 mmHg 64%
    12:00 +13°C° 0.3 mm 2 mps 680 mmHg 61%
    13:00 +13°C° 0.3 mm 2 mps 680 mmHg 61%
    14:00 +14°C° 0.3 mm 2 mps 680 mmHg 60%
    15:00 +14°C° 0.3 mm 2 mps 680 mmHg 59%
    16:00 +14°C° 0.3 mm 2 mps 680 mmHg 61%
    17:00 +13°C° 0.3 mm 2 mps 680 mmHg 63%
    18:00 +13°C° 0.3 mm 2 mps 680 mmHg 64%
    19:00 +12°C° 0.3 mm 2 mps 681 mmHg 66%
    20:00 +12°C° 0.3 mm 2 mps 681 mmHg 68%
    21:00 +10°C° 0.3 mm 2 mps 682 mmHg 70%
    22:00 +10°C° 0.2 mm 2 mps 682 mmHg 71%
    23:00 +10°C° 0.2 mm 2 mps 682 mmHg 72%

    Day after tomorrow, 22 April, Sunday

    Time Temperature Precipitation Wind Pressure Humidity
    00:00 +9°C° 0.2 mm 2 mps 682 mmHg 73%
    01:00 +9°C° 0.1 mm 2 mps 682 mmHg 74%
    02:00 +9°C° 0.1 mm 2 mps 682 mmHg 74%
    03:00 +8°C° 0.1 mm 2 mps 682 mmHg 74%
    04:00 +8°C° 0.2 mm 2 mps 682 mmHg 74%
    05:00 +8°C° 0.2 mm 2 mps 682 mmHg 74%
    06:00 +8°C° 0.2 mm 2 mps 683 mmHg 73%
    07:00 +9°C° 0.2 mm 2 mps 683 mmHg 70%
    08:00 +9°C° 0.2 mm 2 mps 683 mmHg 67%
    09:00 +10°C° 0.2 mm 2 mps 683 mmHg 64%
    10:00 +12°C° 0.2 mm 2 mps 683 mmHg 62%
    11:00 +12°C° 0.2 mm 2 mps 683 mmHg 61%
    12:00 +13°C° 0.2 mm 1 mps 683 mmHg 59%
    13:00 +13°C° 0.1 mm 1 mps 682 mmHg 59%
    14:00 +14°C° 0.1 mm 1 mps 682 mmHg 58%
    15:00 +14°C° 0.1 mm 1 mps 681 mmHg 58%
    16:00 +14°C° 0.1 mm 1 mps 681 mmHg 59%
    17:00 +14°C° 0.1 mm 1 mps 681 mmHg 59%
    18:00 +13°C° 0.1 mm 1 mps 681 mmHg 60%
    19:00 +13°C° 0.1 mm 1 mps 682 mmHg 63%
    20:00 +12°C° 0.1 mm 2 mps 682 mmHg 66%
    21:00 +10°C° 0.1 mm 2 mps 683 mmHg 69%
    22:00 +9°C° 0 mm 2 mps 683 mmHg 70%
    23:00 +9°C° 0 mm 2 mps 683 mmHg 71%

    23 April, Monday

    Time Temperature Precipitation Wind Pressure Humidity
    00:00 +8°C° 0 mm 2 mps 683 mmHg 72%
    01:00 +8°C° 0 mm 2 mps 683 mmHg 73%
    02:00 +7°C° 0 mm 2 mps 683 mmHg 73%
    03:00 +7°C° 0 mm 2 mps 683 mmHg 74%
    04:00 +7°C° 0 mm 3 mps 683 mmHg 73%
    05:00 +7°C° 0 mm 3 mps 683 mmHg 71%
    06:00 +7°C° 0 mm 3 mps 683 mmHg 70%
    07:00 +8°C° 0 mm 3 mps 683 mmHg 63%
    08:00 +10°C° 0 mm 3 mps 683 mmHg 57%
    09:00 +12°C° 0 mm 3 mps 683 mmHg 50%
    10:00 +13°C° 0 mm 3 mps 683 mmHg 48%
    11:00 +14°C° 0 mm 3 mps 683 mmHg 47%
    12:00 +16°C° 0 mm 2 mps 683 mmHg 45%
    13:00 +17°C° 0 mm 2 mps 683 mmHg 43%
    14:00 +17°C° 0 mm 2 mps 683 mmHg 42%
    15:00 +18°C° 0 mm 2 mps 683 mmHg 40%
    16:00 +17°C° 0 mm 2 mps 683 mmHg 40%
    17:00 +17°C° 0 mm 2 mps 683 mmHg 41%
    18:00 +16°C° 0 mm 2 mps 683 mmHg 41%
    19:00 +15°C° 0 mm 2 mps 684 mmHg 45%
    20:00 +14°C° 0 mm 2 mps 684 mmHg 48%
    21:00 +12°C° 0 mm 2 mps 685 mmHg 52%
    22:00 +12°C° 0 mm 2 mps 685 mmHg 54%
    23:00 +11°C° 0 mm 1 mps 685 mmHg 56%

    24 April, Tuesday

    Time Temperature Precipitation Wind Pressure Humidity
    00:00 +11°C° 0 mm 1 mps 685 mmHg 58%
    01:00 +10°C° 0 mm 1 mps 686 mmHg 59%
    02:00 +10°C° 0 mm 1 mps 686 mmHg 59%
    03:00 +10°C° 0 mm 1 mps 686 mmHg 59%
    04:00 +10°C° 0 mm 1 mps 686 mmHg 59%
    05:00 +10°C° 0 mm 1 mps 686 mmHg 58%
    06:00 +10°C° 0 mm 1 mps 687 mmHg 58%
    07:00 +11°C° 0 mm 1 mps 687 mmHg 55%
    08:00 +13°C° 0 mm 1 mps 687 mmHg 52%
    09:00 +15°C° 0 mm 2 mps 687 mmHg 48%
    10:00 +16°C° 0 mm 2 mps 687 mmHg 46%
    11:00 +17°C° 0 mm 2 mps 687 mmHg 43%
    12:00 +18°C° 0 mm 2 mps 687 mmHg 40%
    13:00 +19°C° 0 mm 3 mps 687 mmHg 39%
    14:00 +19°C° 0 mm 3 mps 687 mmHg 38%
    15:00 +20°C° 0 mm 3 mps 687 mmHg 37%
    16:00 +19°C° 0 mm 3 mps 687 mmHg 39%
    17:00 +19°C° 0 mm 3 mps 687 mmHg 40%
    18:00 +18°C° 0 mm 3 mps 687 mmHg 42%
    19:00 +17°C° 0 mm 3 mps 687 mmHg 44%
    20:00 +15°C° 0 mm 2 mps 687 mmHg 47%
    21:00 +14°C° 0 mm 1 mps 688 mmHg 49%
    22:00 +14°C° 0 mm 1 mps 688 mmHg 49%
    23:00 +13°C° 0 mm 1 mps 688 mmHg 49%

    25 April, Wednesday

    Time Temperature Precipitation Wind Pressure Humidity
    00:00 +13°C° 0 mm 1 mps 688 mmHg 49%
    01:00 +13°C° 0 mm 1 mps 688 mmHg 51%
    02:00 +12°C° 0 mm 1 mps 687 mmHg 53%
    03:00 +12°C° 0 mm 1 mps 687 mmHg 54%
    04:00 +12°C° 0 mm 1 mps 687 mmHg 55%
    05:00 +12°C° 0 mm 1 mps 687 mmHg 56%
    06:00 +12°C° 0 mm 1 mps 687 mmHg 57%
    07:00 +14°C° 0 mm 1 mps 687 mmHg 54%
    08:00 +16°C° 0 mm 1 mps 687 mmHg 51%
    09:00 +17°C° 0 mm 2 mps 687 mmHg 48%
    10:00 +18°C° 0 mm 2 mps 687 mmHg 45%
    11:00 +20°C° 0 mm 2 mps 687 mmHg 43%
    12:00 +21°C° 0 mm 2 mps 686 mmHg 41%
    13:00 +21°C° 0 mm 2 mps 686 mmHg 39%
    14:00 +23°C° 0 mm 2 mps 686 mmHg 37%
    15:00 +23°C° 0 mm 2 mps 685 mmHg 36%
    16:00 +21°C° 0.2 mm 2 mps 685 mmHg 38%
    17:00 +21°C° 0.2 mm 2 mps 685 mmHg 40%
    18:00 +20°C° 0.2 mm 2 mps 685 mmHg 42%
    19:00 +19°C° 0.3 mm 2 mps 685 mmHg 45%
    20:00 +18°C° 0.3 mm 1 mps 685 mmHg 49%
    21:00 +16°C° 0.3 mm 1 mps 686 mmHg 52%
    22:00 +16°C° 0 mm 1 mps 685 mmHg 54%
    23:00 +15°C° 0 mm 1 mps 685 mmHg 56%
    Show more